User: anonymous   Login
Location: Unspecified
(0.0000°N, 0.0000°E)
Time: 06:41:29
(UTC+01:00)
Language:

Cosmos 1782 Rocket - Orbit

View from above orbital plane
View from above orbital plane
View from above satellite
View from above satellite

Ground track
Ground track

The orbit data is extracted from the following two-line orbital elements,

1 16987U 86074B   18022.84032545  .00000077  00000-0  66064-5 0  9991
2 16987  82.5171 104.7167 0016728 255.7829 238.3446 14.82994417691022
Epoch (UTC): 22 January 2018 20:10:04
Eccentricity: 0.0016728
inclination: 82.5171°
perigee height: 608 km
apogee height: 631 km
right ascension of ascending node: 104.7167°
argument of perigee: 255.7829°
revolutions per day: 14.82994417
mean anomaly at epoch: 238.3446°
orbit number at epoch: 69102

The dashed part of the orbit path shows where the satellite is in the earth's shadow,  

DLR